Location: Unspecified
(6.0150°S, 0.0000°E)
Time: 02:24:51
(UTC+00:00)

Transit 4A - All Passes

Search period start: 04 April 2026 00:00
Search period end: 14 April 2026 00:00
Orbit: 863 x 978 km, 66.8° (Epoch: 29 March)

Date Brightness Start Highest point End Pass type
(mag) Time Alt. Az. Time Alt. Az. Time Alt. Az.
4 Apr - 03:47:54 10° N 03:54:12 67° ENE 04:00:22 10° SSE visible
4 Apr - 05:39:49 10° WSW 05:40:24 10° WSW 05:40:59 10° WSW visible
4 Apr - 14:56:41 10° S 15:01:55 35° ESE 15:07:11 10° NE daylight
4 Apr - 16:44:11 10° WSW 16:47:54 17° WNW 16:51:39 10° NNW daylight
5 Apr - 03:56:33 10° NNW 04:02:53 76° WSW 04:09:07 10° SSE visible
5 Apr - 15:04:55 10° S 15:10:37 60° ESE 15:16:23 10° NNE daylight
6 Apr - 02:21:54 10° NE 02:25:34 16° ENE 02:29:11 10° ESE visible
6 Apr - 04:05:35 10° NW 04:11:34 45° WSW 04:17:29 10° S visible
6 Apr - 15:13:30 10° SSW 15:19:18 79° WNW 15:25:10 10° NNE daylight
7 Apr - 02:29:02 10° NNE 02:34:16 27° ENE 02:39:23 10° SE visible
7 Apr - 04:15:05 10° NW 04:20:18 27° WSW 04:25:28 10° SSW visible
7 Apr - 13:39:11 10° SE 13:41:51 13° ESE 13:44:31 10° E daylight
7 Apr - 15:22:28 10° SW 15:27:58 46° WNW 15:33:32 10° N daylight
8 Apr - 02:36:57 10° N 02:42:56 45° ENE 02:48:51 10° SE night (unlit)
8 Apr - 04:25:21 10° WNW 04:29:04 16° WSW 04:32:45 10° SSW visible
8 Apr - 13:46:06 10° SSE 13:50:37 23° ESE 13:55:09 10° ENE daylight
8 Apr - 15:31:52 10° SW 15:36:38 27° WNW 15:41:28 10° NNW daylight
9 Apr - 02:45:18 10° NNW 02:51:37 75° ENE 02:57:50 10° SSE night (unlit)
9 Apr - 13:53:57 10° S 13:59:20 40° ESE 14:04:47 10° NE daylight
9 Apr - 15:42:05 10° WSW 15:45:18 15° WNW 15:48:35 10° NW daylight
10 Apr - 02:54:02 10° NNW 03:00:19 67° WSW 03:06:29 10° SSE night (unlit)
10 Apr - 14:02:16 10° SSW 14:08:01 69° ESE 14:13:52 10° NNE daylight
11 Apr - 01:18:52 10° NNE 01:23:00 18° ENE 01:27:05 10° ESE night (unlit)
11 Apr - 03:03:11 10° NW 03:09:01 40° WSW 03:14:47 10° S night (unlit)
11 Apr - 14:10:56 10° SSW 14:16:42 70° WNW 14:22:33 10° NNE daylight
12 Apr - 01:26:15 10° NNE 01:31:42 30° ENE 01:37:03 10° SE night (unlit)
12 Apr - 03:12:49 10° WNW 03:17:45 24° WSW 03:22:38 10° SSW night (unlit)
12 Apr - 12:36:00 10° SSE 12:39:18 15° ESE 12:42:36 10° ENE daylight
12 Apr - 14:20:00 10° SW 14:25:22 40° WNW 14:30:51 10° N daylight
13 Apr - 01:34:16 10° N 01:40:22 51° ENE 01:46:22 10° SE night (unlit)
13 Apr - 03:23:26 10° W 03:26:31 14° WSW 03:29:36 10° SW night (unlit)
13 Apr - 12:43:15 10° SSE 12:48:03 27° ESE 12:52:53 10° NE daylight
13 Apr - 14:29:32 10° WSW 14:34:02 23° WNW 14:38:37 10° NNW daylight
